HB3YKO-13 Weather Reports


Display with metric or nautical units.
time (UTC)temp
F
wind
direction
speed
MPH
gust
MPH
rain 1hr
in
rain 24hr
in
rain mn
in
humidity
%
barometer
mb
20260506184937 0 216 0.0 0.0 0.00 0.01 0.00 72
20260506184437 0 216 0.0 0.0 0.00 0.01 0.00 72
20260506183937 0 216 0.0 0.0 0.00 0.01 0.00 73
20260506183437 0 216 0.0 0.0 0.00 0.01 0.00 72
20260506182937 0 216 0.0 2.0 0.00 0.01 0.00 72
20260506182437 0 240 0.0 3.0 0.00 0.01 0.00 70
20260506181937 0 154 0.0 1.0 0.00 0.01 0.00 70
20260506181437 0 174 0.0 0.0 0.00 0.01 0.00 69
20260506180937 0 174 0.0 3.0 0.00 0.01 0.00 68
20260506180437 0 45 0.0 0.0 0.00 0.01 0.00 68
20260506175937 0 45 0.0 0.0 0.00 0.01 0.00 68
20260506175437 0 45 0.0 0.0 0.00 0.01 0.00 68
20260506174937 0 45 0.0 0.0 0.00 0.01 0.00 67
20260506174437 0 45 0.0 0.0 0.00 0.01 0.00 66
20260506173937 0 45 0.0 0.0 0.00 0.01 0.00 66
20260506173437 0 45 0.0 2.0 0.00 0.01 0.00 65
20260506172937 0 12 0.0 2.0 0.00 0.01 0.00 65
20260506172437 0 70 1.0 2.0 0.00 0.01 0.00 64
20260506171937 0 4 0.0 3.0 0.00 0.01 0.00 62
20260506171437 0 150 1.0 6.0 0.00 0.01 0.00 62
20260506170937 0 99 2.0 4.0 0.00 0.01 0.00 62
20260506170437 0 14 0.0 3.0 0.00 0.01 0.00 63
20260506165937 0 59 0.0 4.0 0.00 0.01 0.00 63
20260506165437 0 104 0.0 5.0 0.00 0.01 0.00 63
20260506164937 0 25 0.0 7.0 0.00 0.01 0.00 62
20260506164437 0 75 0.0 6.0 0.00 0.01 0.00 64
20260506163937 0 66 1.0 6.0 0.00 0.01 0.00 63
20260506163437 0 160 5.0 6.0 0.00 0.01 0.00 62
20260506162937 0 149 1.0 6.0 0.00 0.01 0.00 62
20260506162437 0 125 2.0 6.0 0.00 0.01 0.00 63
20260506161937 0 191 3.0 7.0 0.00 0.01 0.00 62
20260506161437 0 250 0.0 3.0 0.00 0.01 0.00 65
20260506160937 0 12 1.0 5.0 0.00 0.01 0.00 66
20260506160437 0 2 0.0 2.0 0.00 0.01 0.00 67
20260506155937 0 82 0.0 6.0 0.00 0.01 0.00 65
20260506155437 0 70 0.0 2.0 0.00 0.01 0.00 67
20260506154937 0 91 1.0 5.0 0.00 0.01 0.00 66
20260506154437 0 45 1.0 8.0 0.00 0.01 0.00 63
20260506153937 0 118 3.0 5.0 0.00 0.01 0.00 67
20260506153437 0 68 1.0 8.0 0.00 0.01 0.00 62
20260506152937 0 95 2.0 12.0 0.00 0.01 0.00 64
20260506152437 0 112 3.0 7.0 0.00 0.01 0.00 64
20260506151937 0 90 5.0 8.0 0.00 0.01 0.00 63
20260506151437 0 119 3.0 7.0 0.00 0.01 0.00 63
20260506150937 0 129 2.0 4.0 0.00 0.01 0.00 63
20260506150438 0 30 0.0 8.0 0.00 0.01 0.00 64
20260506145938 0 61 0.0 6.0 0.00 0.01 0.00 65
20260506145438 0 307 3.0 11.0 0.00 0.01 0.00 66
20260506144938 0 156 9.0 14.0 0.00 0.01 0.00 68
20260506144438 0 92 3.0 14.0 0.00 0.01 0.00 70
20260506143938 0 123 7.0 13.0 0.00 0.01 0.00 69
20260506143438 0 300 5.0 15.0 0.00 0.01 0.00 70
20260506142938 0 156 9.0 12.0 0.00 0.01 0.00 69
20260506142438 0 97 4.0 15.0 0.00 0.01 0.00 70
20260506141938 0 144 3.0 14.0 0.00 0.01 0.00 70
20260506141438 0 118 5.0 15.0 0.00 0.01 0.00 70
20260506140938 0 115 5.0 17.0 0.00 0.01 0.00 72
20260506140438 0 123 4.0 13.0 0.00 0.01 0.00 70
20260506135938 0 90 0.0 9.0 0.00 0.01 0.00 72
20260506135438 0 354 3.0 10.0 0.00 0.01 0.00 72
20260506134938 0 119 4.0 11.0 0.00 0.01 0.00 71
20260506134438 0 112 6.0 12.0 0.00 0.01 0.00 69
20260506133938 0 132 5.0 11.0 0.00 0.01 0.00 71
20260506133438 0 101 4.0 10.0 0.00 0.01 0.00 68
20260506132938 0 50 1.0 8.0 0.00 0.01 0.00 68
20260506132438 0 151 2.0 7.0 0.00 0.01 0.00 67
20260506131938 0 30 0.0 6.0 0.00 0.01 0.00 69
20260506131438 0 132 3.0 9.0 0.00 0.01 0.00 69
20260506130938 0 75 2.0 8.0 0.00 0.01 0.00 69
20260506130438 0 91 3.0 8.0 0.00 0.01 0.00 71
20260506125938 0 161 1.0 11.0 0.00 0.01 0.00 71
20260506125438 0 132 4.0 11.0 0.00 0.01 0.00 71
20260506124938 0 70 5.0 10.0 0.00 0.01 0.00 72
20260506124438 0 102 4.0 18.0 0.00 0.01 0.00 73
20260506123938 0 153 8.0 14.0 0.00 0.01 0.00 75
20260506123438 0 167 4.0 14.0 0.00 0.01 0.00 76
20260506122938 0 130 6.0 10.0 0.00 0.01 0.00 76
20260506122438 0 126 6.0 17.0 0.00 0.01 0.00 77
20260506121938 0 59 5.0 10.0 0.00 0.01 0.00 75
20260506121438 0 151 8.0 11.0 0.00 0.01 0.00 74
20260506120938 0 156 3.0 10.0 0.00 0.01 0.00 75
20260506120438 0 42 4.0 13.0 0.00 0.01 0.00 70
20260506115938 0 80 6.0 11.0 0.00 0.01 0.00 71
20260506115438 0 253 3.0 12.0 0.00 0.01 0.00 75
20260506114938 0 358 3.0 12.0 0.00 0.01 0.00 74
20260506114438 0 81 4.0 9.0 0.00 0.01 0.00 75
20260506113938 0 63 3.0 12.0 0.00 0.01 0.00 80
20260506113438 0 187 8.0 12.0 0.00 0.01 0.00 79
20260506112938 0 122 2.0 10.0 0.00 0.01 0.00 79
20260506112438 0 101 4.0 8.0 0.00 0.01 0.00 82
20260506111938 0 74 2.0 8.0 0.00 0.01 0.00 81
20260506111438 0 67 4.0 10.0 0.00 0.01 0.00 83
20260506110938 0 82 5.0 9.0 0.00 0.01 0.00 79
20260506110438 0 189 1.0 10.0 0.00 0.01 0.00 83
20260506105938 0 180 3.0 6.0 0.00 0.01 0.00 85
20260506105439 0 68 2.0 5.0 0.00 0.01 0.00 86
20260506104938 0 191 2.0 10.0 0.00 0.01 0.00 86
20260506104438 0 73 2.0 7.0 0.00 0.01 0.00 87
20260506103938 0 54 1.0 3.0 0.00 0.01 0.00 87
20260506103438 0 19 1.0 7.0 0.00 0.01 0.00 86
20260506102938 0 158 2.0 5.0 0.00 0.01 0.00 87
20260506102438 0 11 1.0 3.0 0.00 0.01 0.00 83
20260506101938 0 47 1.0 2.0 0.00 0.01 0.00 83
20260506101438 0 0 0.0 0.0 0.00 0.01 0.00 84
20260506100938 0 0 0.0 3.0 0.00 0.01 0.00 85
20260506100438 0 243 1.0 3.0 0.00 0.01 0.00 85
20260506095938 0 28 0.0 1.0 0.00 0.01 0.00 86
20260506095438 0 36 0.0 2.0 0.00 0.01 0.00 90
20260506094938 0 11 1.0 2.0 0.00 0.01 0.00 90
20260506094438 0 91 0.0 3.0 0.00 0.01 0.00 91
20260506093938 0 227 0.0 0.0 0.00 0.01 0.00 91
20260506093438 0 227 0.0 3.0 0.00 0.01 0.00 90
20260506092938 0 113 0.0 3.0 0.00 0.01 0.00 91
20260506092438 0 202 1.0 4.0 0.00 0.01 0.00 91
20260506091938 0 78 0.0 4.0 0.00 0.01 0.00 91
20260506091438 0 177 0.0 4.0 0.00 0.01 0.00 91
20260506090939 0 201 2.0 5.0 0.00 0.01 0.00 92
20260506090438 0 80 1.0 3.0 0.00 0.01 0.00 92
20260506085938 0 46 0.0 1.0 0.00 0.01 0.00 92
20260506085438 0 91 1.0 3.0 0.00 0.01 0.00 92
20260506084938 0 63 0.0 3.0 0.00 0.01 0.00 92
20260506084438 0 22 0.0 5.0 0.00 0.01 0.00 85
20260506083938 0 255 2.0 7.0 0.00 0.01 0.00 85
20260506083438 0 164 7.0 7.0 0.00 0.01 0.00 92
20260506082938 0 163 2.0 10.0 0.00 0.01 0.00 87
20260506082438 0 146 2.0 7.0 0.00 0.01 0.00 87
20260506081938 0 111 1.0 11.0 0.00 0.01 0.00 86
20260506081438 0 127 2.0 8.0 0.00 0.01 0.00 91
20260506080938 0 98 5.0 11.0 0.00 0.01 0.00 91
20260506080439 0 135 2.0 14.0 0.00 0.01 0.00 91
20260506073439 0 146 0.0 9.0 0.00 0.01 0.00 86
20260506072939 0 149 2.0 7.0 0.00 0.01 0.00 86
20260506072439 0 161 2.0 9.0 0.00 0.01 0.00 85
20260506071939 0 78 0.0 4.0 0.00 0.01 0.00 86
20260506071439 0 146 0.0 1.0 0.00 0.01 0.00 86
20260506070939 0 105 0.0 3.0 0.00 0.01 0.00 86
20260506070439 0 113 0.0 3.0 0.00 0.01 0.00 87
20260506062439 0 52 0.0 2.0 0.00 0.01 0.00 87
20260506061939 0 46 0.0 1.0 0.00 0.01 0.00 87
20260506061439 0 233 0.0 1.0 0.00 0.01 0.00 88
20260506060939 0 233 0.0 0.0 0.00 0.01 0.00 92
20260506060439 0 233 0.0 2.0 0.00 0.01 0.00 92
20260506050939 0 260 0.0 0.0 0.00 0.01 0.00 91
20260506050439 0 260 0.0 0.0 0.00 0.01 0.00 91
20260506044939 0 260 0.0 0.0 0.00 0.01 0.00 92
20260506044439 0 260 0.0 0.0 0.00 0.01 0.00 91
20260506043939 0 260 0.0 0.0 0.00 0.01 0.00 91
20260506043439 0 260 0.0 0.0 0.00 0.01 0.00 92
20260506042939 0 260 0.0 0.0 0.00 0.01 0.00 91
20260506042439 0 260 0.0 0.0 0.00 0.01 0.00 92
20260506041939 0 260 0.0 0.0 0.00 0.01 0.00 91
20260506041439 0 260 0.0 0.0 0.00 0.01 0.00 91
20260506040939 0 260 0.0 0.0 0.00 0.01 0.00 91
20260506040439 0 260 0.0 0.0 0.00 0.01 0.00 92
20260506035939 0 260 0.0 0.0 0.00 0.01 0.00 92
20260506035439 0 260 0.0 0.0 0.00 0.01 0.00 92
20260506034939 0 260 0.0 0.0 0.00 0.01 0.00 92
20260506034439 0 260 0.0 0.0 0.00 0.01 0.00 91
20260506033939 0 260 0.0 0.0 0.00 0.01 0.00 91
20260506033439 0 260 0.0 0.0 0.00 0.01 0.00 91
20260506032939 0 260 0.0 0.0 0.00 0.01 0.00 91
20260506032439 0 260 0.0 0.0 0.00 0.01 0.00 91
20260506031939 0 260 0.0 2.0 0.00 0.01 0.00 91
20260506031439 0 216 1.0 9.0 0.00 0.01 0.00 91
20260506030939 0 16 0.0 0.0 0.00 0.01 0.00 91
20260506030439 0 16 0.0 0.0 0.00 0.01 0.00 90
20260506025939 0 16 0.0 0.0 0.00 0.01 0.00 90
20260506025439 0 16 0.0 0.0 0.00 0.01 0.00 89
20260506024939 0 16 0.0 0.0 0.00 0.01 0.00 88
20260506024439 0 16 0.0 0.0 0.00 0.01 0.00 90
20260506023939 0 16 0.0 0.0 0.00 0.01 0.00 90
20260506023439 0 16 0.0 0.0 0.00 0.01 0.00 90
20260506022939 0 16 0.0 0.0 0.00 0.01 0.00 90
20260506022439 0 16 0.0 0.0 0.00 0.01 0.00 90
20260506021939 0 16 0.0 0.0 0.00 0.01 0.00 90
20260506021439 0 16 0.0 0.0 0.00 0.01 0.00 89
20260506020939 0 16 0.0 0.0 0.00 0.01 0.00 89
20260506020440 0 16 0.0 0.0 0.00 0.01 0.00 89
20260506015939 0 16 0.0 0.0 0.00 0.01 0.00 89
20260506015439 0 16 0.0 0.0 0.00 0.01 0.00 89
20260506014940 0 16 0.0 0.0 0.00 0.01 0.00 89
20260506014440 0 16 0.0 0.0 0.00 0.01 0.01 89
20260506013940 0 16 0.0 0.0 0.00 0.01 0.01 89
20260506013440 0 16 0.0 0.0 0.00 0.01 0.01 89
20260506012940 0 16 0.0 0.0 0.00 0.01 0.01 89
20260506012440 0 16 0.0 0.0 0.00 0.01 0.01 89
20260506011940 0 16 0.0 0.0 0.00 0.01 0.01 89
20260506011440 0 16 0.0 0.0 0.00 0.01 0.01 89
20260506010940 0 16 0.0 0.0 0.00 0.01 0.01 89
20260506010440 0 16 0.0 0.0 0.00 0.01 0.01 89
20260506005940 0 16 0.0 0.0 0.00 0.01 0.01 89
20260506005440 0 16 0.0 2.0 0.00 0.01 0.01 89
20260506004940 0 358 0.0 0.0 0.00 0.01 0.01 88
20260506004440 0 358 0.0 0.0 0.00 0.01 0.01 88
20260506003940 0 358 0.0 0.0 0.00 0.01 0.01 87
20260506003440 0 358 0.0 0.0 0.00 0.01 0.01 87
20260506002940 0 358 0.0 0.0 0.00 0.01 0.01 87
20260506002440 0 358 0.0 0.0 0.00 0.01 0.01 87
20260506001940 0 358 0.0 0.0 0.00 0.01 0.01 86
20260506001440 0 358 0.0 0.0 0.00 0.01 0.01 86
20260506000940 0 358 0.0 0.0 0.00 0.01 0.01 87
20260506000440 0 358 0.0 0.0 0.00 0.01 0.01 86
20260505235940 0 358 0.0 0.0 0.00 0.01 0.01 86
20260505235440 0 358 0.0 0.0 0.00 0.01 0.01 87
20260505234940 0 358 0.0 0.0 0.00 0.01 0.01 87
20260505234440 0 358 0.0 0.0 0.00 0.01 0.01 87
20260505233940 0 358 0.0 0.0 0.00 0.01 0.01 88
20260505233440 0 358 0.0 0.0 0.00 0.01 0.01 88
20260505232940 0 358 0.0 0.0 0.00 0.01 0.01 88
20260505232440 0 358 0.0 0.0 0.00 0.01 0.01 87
20260505231940 0 358 0.0 0.0 0.00 0.01 0.01 87
20260505231440 0 358 0.0 0.0 0.01 0.01 0.01 88
20260505230940 0 358 0.0 0.0 0.01 0.01 0.01 88
20260505230440 0 358 0.0 0.0 0.01 0.01 0.01 88
20260505225940 0 358 0.0 0.0 0.01 0.01 0.01 88
20260505225440 0 358 0.0 0.0 0.01 0.01 0.01 88
20260505224940 0 358 0.0 0.0 0.01 0.01 0.01 88
20260505224440 0 358 0.0 0.0 0.01 0.01 0.01 88
20260505223940 0 358 0.0 0.0 0.01 0.01 0.01 88
20260505223440 0 358 0.0 0.0 0.01 0.01 0.01 88
20260505222940 0 358 0.0 0.0 0.01 0.01 0.01 88
20260505222440 0 358 0.0 0.0 0.01 0.01 0.01 88
20260505221940 0 358 0.0 0.0 0.01 0.01 0.01 88
20260505221440 0 358 0.0 0.0 0.00 0.00 0.00 88
20260505220940 0 358 0.0 0.0 0.00 0.00 0.00 88
20260505220440 0 358 0.0 0.0 0.00 0.00 0.00 88
20260505215940 0 358 0.0 0.0 0.00 0.00 0.00 88
20260505215440 0 358 0.0 0.0 0.00 0.00 0.00 88
20260505214940 0 358 0.0 0.0 0.00 0.00 0.00 88
20260505214440 0 358 0.0 0.0 0.00 0.00 0.00 88
20260505213940 0 358 0.0 0.0 0.00 0.00 0.00 87
20260505213440 0 358 0.0 4.0 0.00 0.00 0.00 87
20260505212940 0 358 0.0 0.0 0.00 0.00 0.00 87
20260505212440 0 358 0.0 0.0 0.00 0.00 0.00 87
20260505211940 0 67 0.0 1.0 0.00 0.00 0.00 88
20260505211440 0 67 0.0 0.0 0.00 0.00 0.00 88
20260505210940 0 67 0.0 3.0 0.00 0.00 0.00 87
20260505210440 0 23 0.0 7.0 0.00 0.00 0.00 87
20260505205940 0 165 2.0 6.0 0.00 0.00 0.00 87
20260505205440 0 9 0.0 0.0 0.00 0.00 0.00 87
20260505204940 0 9 0.0 4.0 0.00 0.00 0.00 87
20260505204440 0 66 0.0 2.0 0.00 0.00 0.00 87
20260505203940 0 327 0.0 0.0 0.00 0.00 0.00 87
20260505203440 0 327 0.0 0.0 0.00 0.00 0.00 87
20260505202940 0 327 0.0 0.0 0.00 0.00 0.00 86
20260505202440 0 327 0.0 0.0 0.00 0.00 0.00 86
20260505201940 0 327 0.0 0.0 0.00 0.00 0.00 86
20260505201440 0 327 0.0 0.0 0.00 0.00 0.00 86
20260505200940 0 327 0.0 0.0 0.00 0.00 0.00 85
20260505200440 0 327 0.0 0.0 0.00 0.00 0.00 85
20260505195940 0 327 0.0 0.0 0.00 0.00 0.00 85
20260505195440 0 327 0.0 0.0 0.00 0.00 0.00 85
20260505194940 0 327 0.0 0.0 0.00 0.00 0.00 85
20260505194440 0 327 0.0 0.0 0.00 0.00 0.00 85
20260505193940 0 327 0.0 0.0 0.00 0.00 0.00 86
20260505193440 0 345 0.0 3.0 0.00 0.00 0.00 85
20260505192940 0 172 0.0 0.0 0.00 0.00 0.00 84
20260505192440 0 172 0.0 0.0 0.00 0.00 0.00 84
20260505191940 0 172 0.0 0.0 0.00 0.00 0.00 84
20260505191440 0 172 0.0 0.0 0.00 0.00 0.00 84
20260505190940 0 172 0.0 0.0 0.00 0.00 0.00 84
20260505190440 0 172 0.0 0.0 0.00 0.00 0.00 83
20260505185940 0 172 0.0 0.0 0.00 0.00 0.00 83
20260505185440 0 172 0.0 0.0 0.00 0.00 0.00 83